TimePDT,TemperatureF,Dew PointF,Humidity,Sea Level PressureIn,VisibilityMPH,Wind Direction,Wind SpeedMPH,Gust SpeedMPH,PrecipitationIn,Events,Conditions,WindDirDegrees,DateUTC
12:53 AM,52.0,46.9,83,30.00,10.0,Calm,Calm,-,N/A,,Clear,0,2013-08-12 07:53:00
1:53 AM,48.9,45.0,86,29.99,10.0,Calm,Calm,-,N/A,,Clear,0,2013-08-12 08:53:00
2:53 AM,48.9,46.0,90,29.99,10.0,Calm,Calm,-,N/A,,Clear,0,2013-08-12 09:53:00
3:53 AM,48.0,44.1,86,29.99,10.0,Calm,Calm,-,N/A,,Clear,0,2013-08-12 10:53:00
4:53 AM,45.0,43.0,93,29.99,10.0,Calm,Calm,-,N/A,,Clear,0,2013-08-12 11:53:00
5:53 AM,46.0,43.0,89,30.01,10.0,Calm,Calm,-,N/A,,Clear,0,2013-08-12 12:53:00
6:53 AM,46.0,44.1,93,30.02,10.0,Calm,Calm,-,N/A,,Clear,0,2013-08-12 13:53:00
7:53 AM,54.0,48.0,80,30.01,10.0,Calm,Calm,-,N/A,,Clear,0,2013-08-12 14:53:00
8:53 AM,62.1,48.0,60,30.00,10.0,Calm,Calm,-,N/A,,Clear,0,2013-08-12 15:53:00
9:53 AM,66.0,50.0,56,30.01,10.0,Calm,Calm,-,N/A,,Clear,0,2013-08-12 16:53:00
10:53 AM,70.0,48.0,46,30.00,10.0,Calm,Calm,-,N/A,,Clear,0,2013-08-12 17:53:00
11:53 AM,73.0,45.0,37,30.01,10.0,Calm,Calm,-,N/A,,Clear,0,2013-08-12 18:53:00
12:53 PM,75.9,44.1,32,29.99,10.0,North,-9999.0,-,N/A,,Clear,0,2013-08-12 19:53:00
1:53 PM,79.0,39.0,24,29.97,10.0,Variable,4.6,-,N/A,,Clear,0,2013-08-12 20:53:00
2:53 PM,80.1,34.0,19,29.96,10.0,ENE,4.6,-,N/A,,Clear,60,2013-08-12 21:53:00
3:53 PM,81.0,37.9,21,29.94,10.0,South,5.8,-,N/A,,Clear,170,2013-08-12 22:53:00
4:53 PM,79.0,39.9,25,29.94,10.0,SSE,3.5,-,N/A,Thunderstorm,Thunderstorm,150,2013-08-12 23:53:00
5:02 PM,78.8,44.6,30,30.04,10.0,SSE,3.5,-,N/A,,Scattered Clouds,160,2013-08-13 00:02:00
5:13 PM,77.0,41.0,28,30.05,10.0,WNW,9.2,-,N/A,Thunderstorm,Scattered Clouds,290,2013-08-13 00:13:00
5:22 PM,75.2,42.8,31,30.05,10.0,WNW,11.5,-,N/A,,Scattered Clouds,300,2013-08-13 00:22:00
5:32 PM,73.4,46.4,38,30.05,10.0,WNW,12.7,-,0.00,Rain-Thunderstorm,Light Thunderstorms and Rain,290,2013-08-13 00:32:00
5:53 PM,73.0,44.1,35,29.97,10.0,WNW,8.1,-,0.00,,Scattered Clouds,290,2013-08-13 00:53:00
6:00 PM,73.4,42.8,33,30.05,10.0,WNW,5.8,-,N/A,Thunderstorm,Partly Cloudy,300,2013-08-13 01:00:00
6:23 PM,73.4,42.8,33,30.04,10.0,NW,6.9,-,N/A,Thunderstorm,Clear,320,2013-08-13 01:23:00
6:44 PM,71.6,46.4,41,30.05,10.0,NW,6.9,-,N/A,Thunderstorm,Clear,320,2013-08-13 01:44:00
6:53 PM,72.0,45.0,38,29.97,10.0,North,4.6,-,N/A,Thunderstorm,Mostly Cloudy,350,2013-08-13 01:53:00
7:53 PM,68.0,46.0,45,29.99,10.0,West,10.4,-,0.00,Thunderstorm,Thunderstorm,270,2013-08-13 02:53:00
8:00 PM,69.8,44.6,40,30.08,10.0,WNW,6.9,-,N/A,,Mostly Cloudy,290,2013-08-13 03:00:00
8:53 PM,64.9,46.9,52,29.98,10.0,WNW,8.1,-,N/A,,Scattered Clouds,290,2013-08-13 03:53:00
9:53 PM,66.9,48.0,51,29.99,10.0,NNW,11.5,-,N/A,,Clear,330,2013-08-13 04:53:00
10:53 PM,63.0,48.9,60,30.00,10.0,SW,3.5,-,N/A,,Clear,230,2013-08-13 05:53:00
11:53 PM,55.9,48.0,75,30.02,10.0,Calm,Calm,-,N/A,,Clear,0,2013-08-13 06:53:00